{"data":{"norad_id":68561,"epoch":"2026-05-25T00:00:02.000160Z","epoch_age_seconds":68817,"freshness":"FRESH","line1":"1 68561U 26070V   26145.00002315  .00043680  00000+0  12978-2 0  9999","line2":"2 68561  53.1589   7.4686 0000181   6.3032 131.7076 15.34365104  6041","mean_motion":15.34365104,"eccentricity":1.81e-5,"inclination_deg":53.1589,"raan_deg":7.4686,"arg_perigee_deg":6.3032,"mean_anomaly_deg":131.7076,"bstar":0.0012978,"rev_number":604,"period_min":93.849892456887,"perigee_km":462.68313935313,"apogee_km":462.9307815245,"semimajor_km":6840.9439604388,"source":"CELESTRAK","updated_at":"2026-05-25T13:38:21.963602Z"}}